Simultaneous Nadir Overpasses (SNOs) Predictions

Prediction of SNOs near US between AQUA and NPP Satellite Orbit:

Table of predicted SNOs near US for the next 10.0 days since TLE Epoch: 3/9/2012
Index Date (AQUA) Time (AQUA) AQUA Lat,Lon Date (NPP) Time (NPP) NPP Lat,Lon Distance(km) Time Diff (sec)
1 03/10/2012 07:18:50 49.89, -76.01 03/10/2012 07:19:32 50.32, -78.28 169.09 42
2 03/10/2012 08:57:43 49.89,-100.73 03/10/2012 09:00:59 50.48,-103.58 213.64 196
3 03/12/2012 18:16:57 49.98, -80.22 03/12/2012 18:09:48 49.69, -81.78 116.67 429
4 03/12/2012 19:55:50 49.98,-104.94 03/12/2012 19:51:16 49.59,-107.11 161.95 274
5 03/12/2012 21:30:58 36.57,-124.99 03/12/2012 21:28:53 36.09,-127.58 238.75 125
6 03/15/2012 09:24:27 20.05,-114.23 03/15/2012 09:16:07 19.72,-114.89 78.75 500
7 03/18/2012 06:30:36 44.93, -65.52 03/18/2012 06:30:13 45.29, -67.70 176.06 23
8 03/18/2012 08:08:05 49.92, -88.30 03/18/2012 08:10:14 50.41, -90.94 196.32 129
9 03/18/2012 09:46:58 49.91,-113.02 03/18/2012 09:51:41 50.58,-116.24 240.76 283




NCC Satellite Simultaneous Nadir Overpasses (SNOs) Prediction Service
